QPF
0.00 0.00 0.00 0.00 0.00 0.00 0.00 0.00 0.00 0.00 0.00 0.00 0.00 0.00 0.00 0.00 0.00 0.01 0.01 0.01 0.00 0.00 0.00 0.01 0.00 0.00 0.00 0.00 0.01 0.00 0.00 0.00 0.00 0.01 0.01 0.02 0.02 0.00 0.00 0.01 0.00 0.00 0.00
0.00 0.00 0.00 0.00 0.00 0.00 0.00 0.00 0.00 0.00 0.00 0.00 0.00 0.00 0.01 0.01 0.00 0.00 0.01 0.01 0.01 0.00 0.00 0.00 0.00 0.00 0.00 0.01 0.01 0.01 0.00 0.00 0.00 0.00 0.00 0.01 0.01 0.00 0.01 0.02 0.01 0.00 0.00
0.00 0.00 0.00 0.00 0.00 0.00 0.00 0.00 0.00 0.00 0.00 0.00 0.00 0.00 0.00 0.01 0.01 0.01 0.01 0.01 0.01 0.01 0.01 0.01 0.01 0.01 0.01 0.01 0.01 0.02 0.01 0.01 0.00 0.00 0.00 0.00 0.00 0.00 0.00 0.01 0.02 0.01 0.00
0.00 0.00 0.00 0.00 0.00 0.00 0.00 0.00 0.00 0.00 0.00 0.00 0.00 0.00 0.00 0.01 0.01 0.02 0.02 0.03 0.05 0.06 0.06 0.05 0.05 0.05 0.05 0.04 0.04 0.04 0.03 0.02 0.00 0.00 0.00 0.00 0.00 0.00 0.00 0.00 0.00 0.00 0.00
0.00 0.00 0.00 0.00 0.00 0.00 0.00 0.00 0.00 0.00 0.00 0.00 0.00 0.00 0.00 0.01 0.01 0.02 0.02 0.03 0.06 0.09 0.11 0.10 0.08 0.07 0.06 0.05 0.05 0.07 0.10 0.05 0.01 0.00 0.00 0.00 0.00 0.00 0.00 0.00 0.00 0.00 0.00
0.00 0.00 0.00 0.00 0.00 0.00 0.00 0.00 0.00 0.00 0.00 0.00 0.00 0.00 0.01 0.01 0.01 0.01 0.01 0.02 0.04 0.07 0.10 0.10 0.08 0.07 0.06 0.05 0.04 0.07 0.12 0.10 0.03 0.00 0.00 0.00 0.00 0.00 0.01 0.00 0.00 0.00 0.00
0.00 0.00 0.00 0.00 0.00 0.00 0.00 0.00 0.00 0.00 0.00 0.00 0.00 0.00 0.00 0.01 0.01 0.02 0.01 0.01 0.01 0.03 0.06 0.09 0.09 0.08 0.08 0.06 0.05 0.07 0.11 0.09 0.03 0.00 0.00 0.00 0.00 0.02 0.03 0.01 0.00 0.00 0.00
0.00 0.00 0.00 0.00 0.01 0.01 0.01 0.00 0.00 0.00 0.00 0.00 0.00 0.00 0.01 0.01 0.02 0.02 0.02 0.01 0.01 0.01 0.03 0.04 0.06 0.07 0.08 0.07 0.07 0.09 0.10 0.06 0.03 0.00 0.00 0.01 0.01 0.04 0.09 0.04 0.01 0.00 0.00
0.00 0.00 0.00 0.00 0.00 0.01 0.01 0.02 0.03 0.03 0.03 0.02 0.02 0.02 0.02 0.01 0.01 0.02 0.03 0.02 0.01 0.01 0.01 0.01 0.02 0.03 0.04 0.06 0.08 0.08 0.08 0.05 0.01 0.00 0.00 0.00 0.02 0.06 0.13 0.08 0.03 0.01 0.00
0.00 0.00 0.00 0.00 0.00 0.00 0.01 0.03 0.06 0.06 0.05 0.05 0.04 0.03 0.03 0.02 0.01 0.01 0.01 0.01 0.01 0.01 0.01 0.00 0.00 0.01 0.01 0.02 0.04 0.05 0.04 0.03 0.01 0.00 0.00 0.00 0.02 0.09 0.19 0.14 0.06 0.02 0.00
0.00 0.00 0.00 0.00 0.00 0.00 0.01 0.02 0.03 0.04 0.04 0.04 0.04 0.05 0.06 0.04 0.03 0.02 0.01 0.01 0.01 0.01 0.02 0.01 0.01 0.00 0.00 0.00 0.00 0.01 0.01 0.01 0.00 0.00 0.00 0.00 0.01 0.08 0.18 0.16 0.09 0.04 0.01
0.00 0.00 0.00 0.00 0.00 0.00 0.00 0.01 0.01 0.01 0.01 0.02 0.03 0.04 0.07 0.09 0.08 0.07 0.04 0.03 0.03 0.04 0.04 0.04 0.03 0.02 0.01 0.00 0.00 0.00 0.00 0.00 0.00 0.00 0.00 0.00 0.01 0.07 0.15 0.16 0.13 0.06 0.03
0.00 0.00 0.00 0.00 0.00 0.00 0.00 0.00 0.00 0.00 0.00 0.01 0.02 0.03 0.07 0.09 0.10 0.09 0.08 0.06 0.05 0.05 0.04 0.05 0.04 0.02 0.01 0.00 0.00 0.00 0.00 0.00 0.00 0.00 0.00 0.00 0.00 0.04 0.11 0.14 0.15 0.11 0.05
0.00 0.00 0.00 0.00 0.00 0.00 0.00 0.00 0.00 0.00 0.00 0.00 0.01 0.01 0.02 0.03 0.04 0.04 0.05 0.05 0.05 0.06 0.07 0.06 0.04 0.02 0.01 0.01 0.00 0.00 0.00 0.00 0.00 0.00 0.00 0.00 0.00 0.02 0.06 0.10 0.13 0.14 0.09
0.00 0.00 0.00 0.00 0.00 0.00 0.00 0.00 0.00 0.00 0.00 0.00 0.00 0.00 0.00 0.01 0.01 0.01 0.01 0.01 0.02 0.03 0.05 0.05 0.05 0.04 0.02 0.01 0.00 0.00 0.00 0.00 0.00 0.00 0.00 0.00 0.00 0.01 0.03 0.07 0.09 0.09 0.08
0.00 0.00 0.00 0.00 0.00 0.00 0.00 0.00 0.00 0.00 0.00 0.00 0.00 0.00 0.00 0.00 0.00 0.00 0.00 0.00 0.00 0.00 0.01 0.01 0.01 0.01 0.01 0.01 0.00 0.00 0.00 0.00 0.00 0.00 0.00 0.00 0.00 0.00 0.02 0.06 0.09 0.08 0.07
0.00 0.00 0.00 0.00 0.00 0.00 0.00 0.00 0.00 0.00 0.00 0.00 0.00 0.00 0.00 0.00 0.00 0.00 0.00 0.00 0.00 0.00 0.00 0.00 0.00 0.00 0.00 0.00 0.00 0.00 0.00 0.00 0.00 0.00 0.00 0.00 0.00 0.01 0.03 0.08 0.10 0.10 0.09
0.00 0.00 0.00 0.00 0.00 0.00 0.00 0.00 0.00 0.00 0.00 0.00 0.00 0.00 0.00 0.00 0.00 0.00 0.00 0.00 0.00 0.00 0.00 0.00 0.00 0.00 0.00 0.00 0.00 0.00 0.00 0.00 0.00 0.00 0.00 0.00 0.01 0.02 0.02 0.06 0.11 0.11 0.12
0.00 0.00 0.00 0.00 0.00 0.00 0.00 0.00 0.00 0.00 0.00 0.00 0.00 0.00 0.00 0.00 0.00 0.00 0.00 0.00 0.00 0.00 0.00 0.00 0.00 0.00 0.00 0.00 0.00 0.00 0.00 0.00 0.00 0.01 0.01 0.01 0.01 0.02 0.02 0.04 0.08 0.10 0.12
0.00 0.00 0.00 0.00 0.00 0.00 0.00 0.00 0.00 0.00 0.00 0.00 0.00 0.00 0.00 0.00 0.00 0.00 0.00 0.00 0.00 0.00 0.00 0.00 0.00 0.00 0.00 0.00 0.00 0.00 0.00 0.00 0.00 0.01 0.01 0.02 0.02 0.02 0.02 0.02 0.04 0.06 0.08
0.00 0.00 0.00 0.00 0.00 0.00 0.00 0.00 0.00 0.00 0.00 0.00 0.00 0.00 0.00 0.00 0.00 0.00 0.00 0.00 0.00 0.00 0.00 0.00 0.00 0.00 0.00 0.00 0.00 0.00 0.00 0.00 0.00 0.00 0.01 0.01 0.02 0.02 0.02 0.02 0.03 0.03 0.04
0.00 0.00 0.00 0.00 0.00 0.00 0.00 0.00 0.00 0.00 0.00 0.00 0.00 0.00 0.00 0.00 0.00 0.00 0.00 0.00 0.00 0.00 0.00 0.00 0.00 0.00 0.00 0.00 0.00 0.00 0.00 0.00 0.00 0.00 0.00 0.01 0.01 0.02 0.02 0.02 0.03 0.03 0.03
0.00 0.00 0.00 0.00 0.00 0.00 0.00 0.00 0.00 0.00 0.00 0.00 0.00 0.00 0.00 0.00 0.00 0.00 0.00 0.00 0.00 0.00 0.00 0.00 0.00 0.01 0.01 0.01 0.01 0.01 0.01 0.00 0.00 0.00 0.00 0.00 0.01 0.01 0.02 0.03 0.03 0.04 0.05
0.00 0.00 0.00 0.00 0.00 0.00 0.00 0.00 0.00 0.00 0.00 0.00 0.00 0.00 0.00 0.00 0.00 0.00 0.00 0.00 0.00 0.00 0.00 0.00 0.00 0.01 0.01 0.01 0.02 0.02 0.01 0.00 0.00 0.00 0.00 0.00 0.01 0.01 0.02 0.02 0.04 0.05 0.06
0.00 0.00 0.00 0.00 0.00 0.00 0.00 0.00 0.00 0.00 0.00 0.00 0.00 0.00 0.00 0.00 0.00 0.00 0.00 0.00 0.00 0.00 0.00 0.00 0.01 0.01 0.02 0.02 0.02 0.02 0.02 0.01 0.00 0.00 0.00 0.00 0.00 0.01 0.01 0.02 0.04 0.06 0.07
0.00 0.00 0.00 0.00 0.00 0.00 0.00 0.00 0.00 0.00 0.00 0.00 0.00 0.00 0.00 0.00 0.00 0.00 0.00 0.00 0.00 0.00 0.00 0.01 0.01 0.02 0.02 0.02 0.03 0.02 0.02 0.01 0.00 0.00 0.00 0.00 0.01 0.01 0.01 0.01 0.02 0.04 0.07
MSLP
1014.39 1013.96 1013.72 1013.68 1013.82 1014.08 1014.36 1014.59 1014.72 1014.72 1014.62 1014.46 1014.31 1014.21 1014.19 1014.25 1014.37 1014.51 1014.62 1014.68 1014.69 1014.65 1014.60 1014.57 1014.58 1014.63 1014.72 1014.82 1014.91 1014.96 1014.96 1014.93 1014.89 1014.87 1014.89 1014.96 1015.07 1015.20 1015.32 1015.42 1015.48 1015.48 1015.47
1014.44 1014.04 1013.82 1013.80 1013.95 1014.21 1014.50 1014.74 1014.88 1014.91 1014.83 1014.70 1014.58 1014.50 1014.50 1014.56 1014.67 1014.77 1014.84 1014.86 1014.82 1014.75 1014.67 1014.62 1014.61 1014.65 1014.74 1014.83 1014.91 1014.96 1014.97 1014.95 1014.93 1014.93 1014.96 1015.05 1015.17 1015.30 1015.42 1015.50 1015.54 1015.55 1015.53
1014.47 1014.11 1013.90 1013.89 1014.05 1014.31 1014.59 1014.84 1014.99 1015.03 1014.98 1014.88 1014.79 1014.74 1014.75 1014.80 1014.89 1014.96 1014.98 1014.95 1014.86 1014.75 1014.64 1014.56 1014.54 1014.58 1014.66 1014.76 1014.84 1014.90 1014.93 1014.94 1014.95 1014.98 1015.05 1015.15 1015.27 1015.40 1015.51 1015.59 1015.62 1015.63 1015.62
1014.55 1014.21 1014.02 1014.02 1014.16 1014.40 1014.67 1014.89 1015.04 1015.08 1015.04 1014.97 1014.90 1014.86 1014.87 1014.92 1014.98 1015.01 1015.00 1014.92 1014.80 1014.65 1014.52 1014.43 1014.40 1014.44 1014.52 1014.63 1014.73 1014.82 1014.88 1014.93 1014.97 1015.04 1015.13 1015.24 1015.37 1015.49 1015.60 1015.66 1015.69 1015.70 1015.71
1014.78 1014.45 1014.26 1014.24 1014.36 1014.56 1014.78 1014.96 1015.07 1015.08 1015.03 1014.95 1014.88 1014.84 1014.84 1014.88 1014.91 1014.92 1014.88 1014.78 1014.64 1014.48 1014.35 1014.26 1014.24 1014.28 1014.38 1014.50 1014.63 1014.74 1014.83 1014.91 1014.99 1015.08 1015.19 1015.31 1015.44 1015.55 1015.64 1015.70 1015.73 1015.75 1015.78
1015.22 1014.88 1014.68 1014.64 1014.71 1014.85 1015.00 1015.10 1015.13 1015.09 1014.99 1014.87 1014.77 1014.71 1014.70 1014.71 1014.73 1014.72 1014.66 1014.56 1014.42 1014.28 1014.17 1014.10 1014.10 1014.16 1014.27 1014.41 1014.55 1014.67 1014.79 1014.89 1014.99 1015.09 1015.21 1015.33 1015.44 1015.54 1015.62 1015.66 1015.70 1015.73 1015.78
1015.91 1015.55 1015.33 1015.24 1015.25 1015.31 1015.36 1015.36 1015.29 1015.15 1014.97 1014.79 1014.64 1014.54 1014.50 1014.48 1014.48 1014.46 1014.40 1014.31 1014.20 1014.09 1014.01 1013.98 1014.01 1014.09 1014.21 1014.36 1014.50 1014.63 1014.75 1014.85 1014.96 1015.06 1015.17 1015.28 1015.38 1015.46 1015.52 1015.56 1015.60 1015.65 1015.72
1016.82 1016.45 1016.20 1016.06 1016.00 1015.96 1015.90 1015.78 1015.59 1015.34 1015.07 1014.81 1014.59 1014.44 1014.34 1014.29 1014.26 1014.22 1014.17 1014.10 1014.01 1013.94 1013.90 1013.91 1013.97 1014.07 1014.20 1014.34 1014.47 1014.59 1014.70 1014.79 1014.88 1014.97 1015.06 1015.15 1015.23 1015.29 1015.34 1015.38 1015.42 1015.49 1015.60
1017.91 1017.52 1017.24 1017.05 1016.92 1016.78 1016.60 1016.36 1016.05 1015.70 1015.33 1014.99 1014.70 1014.48 1014.33 1014.22 1014.15 1014.08 1014.02 1013.94 1013.88 1013.84 1013.83 1013.87 1013.95 1014.06 1014.19 1014.32 1014.44 1014.54 1014.62 1014.69 1014.76 1014.83 1014.90 1014.96 1015.02 1015.07 1015.11 1015.15 1015.21 1015.29 1015.42
1019.07 1018.68 1018.38 1018.15 1017.95 1017.72 1017.44 1017.08 1016.67 1016.23 1015.78 1015.37 1015.02 1014.73 1014.51 1014.34 1014.21 1014.08 1013.97 1013.88 1013.80 1013.76 1013.77 1013.83 1013.92 1014.04 1014.16 1014.28 1014.38 1014.46 1014.51 1014.56 1014.60 1014.64 1014.69 1014.73 1014.78 1014.81 1014.85 1014.89 1014.96 1015.07 1015.22
1020.24 1019.85 1019.55 1019.29 1019.02 1018.72 1018.34 1017.90 1017.41 1016.90 1016.40 1015.94 1015.54 1015.20 1014.91 1014.67 1014.44 1014.24 1014.05 1013.89 1013.78 1013.71 1013.71 1013.76 1013.85 1013.96 1014.08 1014.19 1014.28 1014.33 1014.37 1014.40 1014.42 1014.44 1014.46 1014.49 1014.52 1014.54 1014.57 1014.63 1014.71 1014.83 1015.01
1021.36 1021.00 1020.70 1020.41 1020.09 1019.71 1019.26 1018.76 1018.22 1017.67 1017.15 1016.67 1016.24 1015.85 1015.50 1015.17 1014.84 1014.53 1014.24 1013.99 1013.80 1013.67 1013.63 1013.65 1013.73 1013.84 1013.95 1014.05 1014.13 1014.18 1014.20 1014.22 1014.22 1014.23 1014.24 1014.24 1014.25 1014.27 1014.30 1014.36 1014.45 1014.59 1014.78
1022.42 1022.10 1021.80 1021.48 1021.10 1020.65 1020.14 1019.59 1019.01 1018.46 1017.94 1017.47 1017.03 1016.62 1016.21 1015.79 1015.36 1014.92 1014.51 1014.14 1013.85 1013.65 1013.54 1013.52 1013.57 1013.66 1013.76 1013.86 1013.94 1013.99 1014.02 1014.03 1014.03 1014.02 1014.01 1014.00 1013.99 1013.99 1014.01 1014.07 1014.17 1014.32 1014.53
1023.44 1023.15 1022.85 1022.48 1022.04 1021.52 1020.94 1020.34 1019.76 1019.21 1018.72 1018.27 1017.84 1017.42 1016.96 1016.47 1015.93 1015.38 1014.84 1014.35 1013.94 1013.64 1013.46 1013.38 1013.39 1013.46 1013.55 1013.64 1013.72 1013.78 1013.81 1013.82 1013.81 1013.80 1013.77 1013.74 1013.71 1013.69 1013.70 1013.74 1013.85 1014.01 1014.23
1024.43 1024.16 1023.83 1023.41 1022.88 1022.28 1021.64 1021.00 1020.41 1019.88 1019.42 1019.01 1018.61 1018.18 1017.69 1017.13 1016.51 1015.85 1015.19 1014.58 1014.07 1013.67 1013.41 1013.26 1013.22 1013.25 1013.32 1013.40 1013.48 1013.53 1013.57 1013.58 1013.57 1013.54 1013.49 1013.44 1013.38 1013.33 1013.32 1013.35 1013.45 1013.62 1013.85
1025.41 1025.13 1024.76 1024.25 1023.64 1022.95 1022.24 1021.56 1020.96 1020.45 1020.02 1019.64 1019.27 1018.84 1018.34 1017.73 1017.04 1016.29 1015.54 1014.84 1014.23 1013.75 1013.40 1013.19 1013.08 1013.06 1013.09 1013.14 1013.20 1013.24 1013.28 1013.28 1013.27 1013.22 1013.15 1013.07 1012.98 1012.90 1012.86 1012.88 1012.97 1013.15 1013.40
1026.36 1026.05 1025.61 1025.01 1024.30 1023.53 1022.75 1022.04 1021.43 1020.93 1020.52 1020.17 1019.81 1019.39 1018.87 1018.24 1017.50 1016.69 1015.88 1015.11 1014.43 1013.87 1013.44 1013.15 1012.97 1012.88 1012.85 1012.85 1012.87 1012.89 1012.91 1012.90 1012.88 1012.82 1012.73 1012.62 1012.51 1012.40 1012.34 1012.34 1012.42 1012.60 1012.86
1027.24 1026.88 1026.36 1025.67 1024.88 1024.03 1023.20 1022.46 1021.84 1021.35 1020.96 1020.61 1020.26 1019.83 1019.29 1018.64 1017.87 1017.03 1016.18 1015.36 1014.63 1014.02 1013.52 1013.15 1012.88 1012.71 1012.59 1012.52 1012.48 1012.46 1012.45 1012.43 1012.40 1012.33 1012.24 1012.11 1011.98 1011.85 1011.77 1011.75 1011.83 1012.00 1012.28
1028.02 1027.59 1026.99 1026.23 1025.37 1024.47 1023.62 1022.86 1022.24 1021.74 1021.35 1021.00 1020.63 1020.18 1019.62 1018.94 1018.15 1017.30 1016.43 1015.60 1014.83 1014.17 1013.61 1013.16 1012.80 1012.52 1012.31 1012.15 1012.04 1011.96 1011.92 1011.88 1011.84 1011.78 1011.69 1011.57 1011.43 1011.29 1011.19 1011.16 1011.23 1011.40 1011.68
1028.65 1028.15 1027.48 1026.67 1025.78 1024.87 1024.01 1023.26 1022.64 1022.15 1021.75 1021.37 1020.96 1020.48 1019.88 1019.17 1018.36 1017.50 1016.63 1015.79 1015.01 1014.31 1013.69 1013.16 1012.70 1012.32 1012.00 1011.74 1011.55 1011.42 1011.34 1011.29 1011.26 1011.21 1011.14 1011.03 1010.90 1010.77 1010.66 1010.62 1010.67 1010.83 1011.10
1029.13 1028.57 1027.86 1027.03 1026.14 1025.25 1024.42 1023.69 1023.09 1022.59 1022.16 1021.75 1021.29 1020.74 1020.10 1019.35 1018.52 1017.65 1016.78 1015.93 1015.14 1014.41 1013.75 1013.14 1012.59 1012.10 1011.67 1011.32 1011.05 1010.87 1010.76 1010.71 1010.69 1010.67 1010.63 1010.55 1010.44 1010.32 1010.21 1010.15 1010.18 1010.31 1010.55
1029.49 1028.89 1028.16 1027.35 1026.48 1025.64 1024.86 1024.17 1023.59 1023.08 1022.62 1022.15 1021.62 1021.00 1020.29 1019.50 1018.64 1017.76 1016.88 1016.04 1015.24 1014.48 1013.77 1013.10 1012.47 1011.88 1011.36 1010.92 1010.59 1010.36 1010.23 1010.18 1010.18 1010.20 1010.20 1010.16 1010.08 1009.97 1009.86 1009.78 1009.78 1009.87 1010.07
1029.79 1029.17 1028.45 1027.67 1026.86 1026.07 1025.35 1024.70 1024.13 1023.62 1023.11 1022.57 1021.96 1021.27 1020.49 1019.63 1018.74 1017.84 1016.96 1016.11 1015.30 1014.53 1013.78 1013.06 1012.35 1011.69 1011.09 1010.59 1010.19 1009.93 1009.78 1009.74 1009.77 1009.82 1009.86 1009.86 1009.81 1009.71 1009.60 1009.51 1009.46 1009.51 1009.64
1030.09 1029.48 1028.79 1028.05 1027.30 1026.57 1025.89 1025.28 1024.72 1024.18 1023.62 1023.01 1022.32 1021.54 1020.69 1019.78 1018.85 1017.92 1017.03 1016.17 1015.36 1014.56 1013.79 1013.02 1012.27 1011.55 1010.89 1010.33 1009.89 1009.60 1009.44 1009.40 1009.45 1009.53 1009.60 1009.63 1009.61 1009.53 1009.41 1009.30 1009.22 1009.21 1009.29
1030.46 1029.87 1029.22 1028.53 1027.82 1027.14 1026.50 1025.89 1025.32 1024.74 1024.13 1023.44 1022.68 1021.82 1020.90 1019.94 1018.97 1018.02 1017.11 1016.25 1015.41 1014.60 1013.80 1013.00 1012.22 1011.46 1010.76 1010.16 1009.69 1009.37 1009.20 1009.15 1009.20 1009.29 1009.38 1009.43 1009.43 1009.36 1009.26 1009.13 1009.03 1008.98 1009.00
1030.91 1030.37 1029.76 1029.10 1028.43 1027.77 1027.13 1026.52 1025.92 1025.29 1024.61 1023.86 1023.02 1022.11 1021.13 1020.13 1019.13 1018.15 1017.22 1016.34 1015.49 1014.67 1013.84 1013.02 1012.20 1011.42 1010.69 1010.06 1009.56 1009.21 1009.01 1008.94 1008.97 1009.06 1009.16 1009.22 1009.24 1009.19 1009.10 1008.98 1008.87 1008.80 1008.80
Thickness
5736 5738 5738 5736 5735 5733 5732 5731 5730 5730 5730 5730 5729 5729 5729 5728 5728 5727 5727 5728 5728 5729 5729 5730 5730 5730 5731 5731 5731 5731 5730 5731 5731 5731 5731 5731 5730 5730 5729 5729 5729 5729 5730
5736 5734 5733 5732 5730 5729 5727 5726 5725 5725 5724 5724 5724 5724 5724 5724 5723 5723 5723 5724 5724 5725 5725 5726 5727 5727 5727 5727 5727 5727 5727 5727 5727 5727 5727 5727 5726 5726 5726 5726 5726 5726 5726
5731 5729 5728 5726 5724 5723 5722 5721 5720 5719 5719 5718 5718 5718 5718 5718 5718 5718 5719 5720 5720 5721 5722 5723 5723 5723 5723 5723 5723 5723 5723 5723 5722 5722 5722 5722 5722 5722 5722 5722 5723 5723 5723
5723 5722 5721 5720 5718 5717 5716 5715 5714 5713 5712 5712 5712 5712 5712 5712 5713 5714 5714 5715 5715 5716 5717 5718 5719 5720 5720 5720 5719 5719 5719 5719 5718 5718 5718 5718 5718 5719 5718 5718 5719 5719 5719
5716 5715 5714 5713 5712 5711 5710 5708 5707 5706 5706 5706 5705 5705 5706 5707 5708 5709 5709 5710 5710 5711 5712 5713 5714 5715 5715 5716 5715 5715 5715 5714 5714 5714 5714 5714 5714 5715 5715 5715 5715 5716 5716
5708 5707 5706 5706 5705 5704 5703 5702 5701 5700 5700 5700 5700 5700 5700 5701 5702 5703 5704 5704 5704 5705 5707 5708 5709 5710 5710 5711 5711 5711 5710 5710 5710 5709 5709 5710 5711 5711 5712 5712 5712 5712 5712
5698 5698 5698 5698 5698 5698 5697 5696 5695 5695 5694 5694 5694 5694 5695 5696 5697 5698 5698 5699 5699 5699 5700 5701 5702 5703 5704 5705 5706 5706 5705 5706 5705 5705 5705 5706 5707 5708 5709 5708 5708 5708 5709
5686 5686 5687 5688 5690 5690 5690 5690 5689 5688 5688 5688 5688 5689 5689 5690 5691 5692 5692 5693 5693 5693 5694 5694 5695 5696 5697 5699 5699 5700 5700 5701 5701 5701 5701 5702 5703 5705 5705 5705 5705 5705 5705
5674 5674 5674 5675 5677 5678 5679 5680 5680 5680 5680 5680 5681 5682 5682 5683 5684 5684 5685 5686 5686 5687 5687 5688 5689 5690 5691 5692 5693 5694 5695 5696 5697 5697 5697 5697 5699 5701 5702 5702 5701 5702 5702
5660 5659 5659 5661 5663 5665 5667 5667 5668 5669 5670 5671 5672 5673 5674 5675 5676 5676 5677 5678 5679 5680 5680 5681 5682 5683 5684 5685 5686 5687 5689 5691 5692 5692 5692 5693 5695 5697 5699 5699 5699 5699 5699
5644 5644 5644 5646 5647 5650 5652 5652 5653 5654 5655 5657 5659 5662 5664 5666 5667 5668 5669 5670 5671 5672 5673 5674 5675 5676 5677 5678 5679 5680 5682 5684 5686 5687 5688 5689 5690 5693 5695 5696 5695 5696 5696
5626 5627 5628 5630 5632 5634 5636 5637 5638 5639 5640 5641 5644 5648 5652 5654 5657 5659 5661 5662 5663 5664 5665 5667 5668 5668 5670 5671 5672 5673 5675 5677 5680 5682 5684 5685 5686 5688 5691 5692 5693 5693 5694
5609 5612 5613 5614 5616 5618 5620 5621 5621 5623 5625 5627 5630 5633 5637 5641 5644 5647 5650 5653 5655 5656 5658 5659 5660 5661 5662 5663 5664 5666 5669 5671 5673 5676 5679 5680 5682 5684 5687 5689 5690 5690 5691
5598 5598 5599 5600 5601 5602 5603 5604 5605 5606 5608 5610 5613 5616 5620 5624 5627 5631 5636 5640 5643 5646 5649 5650 5652 5653 5655 5656 5657 5659 5662 5665 5668 5671 5674 5676 5678 5680 5683 5685 5687 5688 5688
5586 5585 5586 5586 5587 5587 5588 5588 5589 5590 5591 5593 5596 5599 5602 5606 5610 5615 5620 5625 5630 5634 5638 5641 5643 5645 5647 5649 5651 5653 5655 5659 5662 5665 5668 5672 5674 5676 5678 5681 5683 5685 5685
5570 5569 5570 5572 5571 5571 5572 5572 5573 5573 5575 5578 5580 5583 5586 5589 5593 5598 5605 5611 5616 5621 5626 5630 5633 5636 5639 5641 5643 5646 5649 5652 5655 5659 5662 5666 5669 5672 5674 5676 5679 5681 5682
5553 5552 5553 5554 5553 5553 5554 5555 5556 5557 5558 5560 5562 5565 5569 5572 5577 5581 5587 5594 5600 5606 5612 5618 5622 5625 5628 5632 5635 5638 5641 5645 5648 5652 5656 5660 5663 5667 5669 5672 5674 5676 5678
5537 5536 5535 5535 5534 5534 5534 5535 5536 5538 5540 5542 5544 5547 5550 5554 5559 5564 5570 5577 5584 5591 5598 5604 5610 5614 5617 5621 5625 5629 5633 5637 5641 5645 5649 5653 5657 5661 5664 5667 5669 5671 5673
5520 5518 5517 5516 5516 5516 5516 5516 5516 5518 5519 5521 5524 5527 5530 5534 5539 5545 5552 5559 5566 5574 5582 5589 5597 5601 5606 5610 5614 5619 5623 5627 5632 5637 5642 5646 5650 5654 5658 5661 5663 5665 5668
5502 5499 5498 5496 5495 5495 5496 5496 5497 5498 5498 5500 5502 5505 5508 5513 5518 5524 5532 5539 5547 5556 5564 5572 5579 5587 5593 5598 5603 5609 5613 5618 5622 5627 5633 5638 5643 5647 5651 5654 5657 5659 5661
5485 5480 5477 5474 5472 5471 5471 5472 5474 5475 5477 5479 5480 5482 5485 5490 5496 5503 5510 5518 5526 5535 5544 5553 5561 5570 5579 5583 5587 5593 5600 5606 5612 5617 5622 5628 5634 5639 5642 5646 5649 5651 5654
5460 5455 5452 5447 5445 5443 5441 5441 5443 5446 5449 5453 5456 5458 5461 5465 5472 5479 5486 5495 5503 5513 5524 5533 5541 5551 5562 5568 5573 5577 5582 5590 5599 5606 5610 5616 5622 5628 5632 5637 5640 5643 5645
5432 5426 5421 5416 5414 5412 5410 5411 5412 5416 5419 5422 5427 5432 5435 5440 5447 5455 5463 5471 5480 5490 5501 5511 5520 5530 5542 5552 5558 5563 5566 5575 5582 5589 5595 5601 5608 5614 5620 5625 5629 5632 5635
5404 5397 5391 5387 5384 5381 5379 5379 5379 5382 5385 5388 5393 5401 5407 5413 5421 5430 5439 5448 5457 5467 5477 5488 5499 5509 5519 5531 5539 5547 5554 5561 5564 5572 5579 5584 5591 5599 5605 5611 5616 5620 5624
5378 5371 5366 5362 5359 5356 5353 5350 5351 5352 5354 5358 5365 5373 5382 5390 5397 5406 5416 5425 5435 5445 5455 5465 5476 5487 5497 5508 5518 5526 5531 5537 5545 5552 5560 5567 5573 5580 5588 5596 5602 5607 5611
5358 5351 5346 5343 5340 5337 5333 5331 5330 5331 5333 5338 5344 5351 5360 5369 5377 5385 5394 5403 5412 5422 5432 5443 5453 5463 5475 5485 5495 5503 5510 5517 5524 5531 5539 5547 5553 5561 5570 5578 5586 5592 5598